| time (UTC) | temp F | wind direction | speed MPH | gust MPH | rain 1hr in | rain 24hr in | rain mn in | humidity % | barometer mb |
| 20260901160041 | 84 | 225 | 0.0 | 4.0 | 0.00 | 0.03 | 0.00 | 76 | 1012.9 |
| 20260901154539 | 83 | 310 | 0.0 | 2.0 | 0.00 | 0.03 | 0.00 | 78 | 1012.8 |
| 20260901153038 | 82 | 6 | 0.0 | 2.0 | 0.00 | 0.03 | 0.00 | 79 | 1012.9 |
| 20260901151534 | 82 | 205 | 0.0 | 1.0 | 0.00 | 0.03 | 0.00 | 79 | 1013.0 |
| 20260901150032 | 81 | 74 | 0.0 | 1.0 | 0.00 | 0.03 | 0.00 | 81 | 1013.1 |
| 20260901144529 | 81 | 122 | 0.0 | 1.0 | 0.00 | 0.03 | 0.00 | 83 | 1013.2 |
| 20260901143029 | 80 | 120 | 0.0 | 1.0 | 0.00 | 0.03 | 0.00 | 84 | 1013.3 |
| 20260901141523 | 78 | 144 | 0.0 | 1.0 | 0.00 | 0.03 | 0.00 | 88 | 1013.3 |
| 20260901140026 | 77 | 143 | 0.0 | 0.0 | 0.00 | 0.03 | 0.00 | 89 | 1013.3 |
| 20260901134522 | 77 | 143 | 0.0 | 1.0 | 0.00 | 0.03 | 0.00 | 90 | 1013.0 |
| 20260901133013 | 76 | 143 | 0.0 | 1.0 | 0.00 | 0.03 | 0.00 | 92 | 1013.0 |
| 20260901131511 | 74 | 131 | 0.0 | 1.0 | 0.00 | 0.03 | 0.00 | 96 | 1012.9 |
| 20260901130011 | 73 | 131 | 0.0 | 1.0 | 0.00 | 0.03 | 0.00 | 96 | 1013.0 |
| 20260901124505 | 73 | 131 | 0.0 | 0.0 | 0.00 | 0.03 | 0.00 | 97 | 1013.2 |
| 20260901123100 | 70 | 131 | 0.0 | 0.0 | 0.00 | 0.03 | 0.00 | 96 | 1013.2 |
| 20260901121559 | 69 | 130 | 0.0 | 0.0 | 0.00 | 0.03 | 0.00 | 96 | 1013.2 |
| 20260901120101 | 68 | 130 | 0.0 | 0.0 | 0.00 | 0.03 | 0.00 | 96 | 1013.0 |
| 20260901114557 | 68 | 130 | 0.0 | 0.0 | 0.00 | 0.03 | 0.00 | 96 | 1013.0 |
| 20260901113057 | 67 | 130 | 0.0 | 0.0 | 0.00 | 0.03 | 0.00 | 96 | 1012.8 |
| 20260901111554 | 68 | 129 | 0.0 | 0.0 | 0.00 | 0.03 | 0.00 | 96 | 1012.8 |
| 20260901110052 | 68 | 130 | 0.0 | 0.0 | 0.00 | 0.03 | 0.00 | 96 | 1012.6 |
| 20260901104554 | 68 | 129 | 0.0 | 0.0 | 0.00 | 0.03 | 0.00 | 96 | 1012.5 |
| 20260901103049 | 68 | 129 | 0.0 | 0.0 | 0.00 | 0.03 | 0.00 | 96 | 1012.5 |
| 20260901101547 | 68 | 130 | 0.0 | 0.0 | 0.00 | 0.03 | 0.00 | 96 | 1012.4 |
| 20260901100047 | 69 | 129 | 0.0 | 0.0 | 0.00 | 0.03 | 0.00 | 96 | 1012.4 |
| 20260901094550 | 69 | 130 | 0.0 | 0.0 | 0.00 | 0.03 | 0.00 | 96 | 1012.4 |
| 20260901093045 | 69 | 129 | 0.0 | 0.0 | 0.00 | 0.03 | 0.00 | 96 | 1012.4 |
| 20260901091546 | 69 | 130 | 0.0 | 0.0 | 0.00 | 0.03 | 0.00 | 96 | 1012.2 |
| 20260901090043 | 69 | 129 | 0.0 | 0.0 | 0.00 | 0.03 | 0.00 | 96 | 1012.1 |
| 20260901084545 | 69 | 129 | 0.0 | 0.0 | 0.00 | 0.03 | 0.00 | 96 | 1012.1 |
| 20260901083042 | 69 | 130 | 0.0 | 0.0 | 0.00 | 0.03 | 0.00 | 96 | 1012.0 |
| 20260901081540 | 69 | 129 | 0.0 | 0.0 | 0.00 | 0.03 | 0.00 | 96 | 1012.1 |
| 20260901080040 | 69 | 130 | 0.0 | 0.0 | 0.00 | 0.03 | 0.00 | 96 | 1012.0 |
| 20260901074539 | 69 | 129 | 0.0 | 0.0 | 0.00 | 0.03 | 0.00 | 96 | 1012.0 |
| 20260901073038 | 69 | 130 | 0.0 | 0.0 | 0.00 | 0.03 | 0.00 | 96 | 1012.0 |
| 20260901071536 | 70 | 129 | 0.0 | 0.0 | 0.00 | 0.03 | 0.00 | 95 | 1012.1 |
| 20260901070036 | 70 | 129 | 0.0 | 0.0 | 0.00 | 0.03 | 0.00 | 95 | 1012.0 |
| 20260901064535 | 70 | 129 | 0.0 | 0.0 | 0.00 | 0.03 | 0.00 | 95 | 1012.1 |
| 20260901063033 | 70 | 130 | 0.0 | 0.0 | 0.00 | 0.03 | 0.00 | 95 | 1012.2 |
| 20260901061531 | 70 | 130 | 0.0 | 0.0 | 0.00 | 0.03 | 0.00 | 95 | 1012.2 |
| 20260901060029 | 71 | 129 | 0.0 | 0.0 | 0.00 | 0.03 | 0.00 | 94 | 1012.5 |
| 20260901054528 | 71 | 129 | 0.0 | 0.0 | 0.00 | 0.03 | 0.00 | 94 | 1012.6 |
| 20260901053044 | 71 | 129 | 0.0 | 0.0 | 0.00 | 0.03 | 0.00 | 94 | 1012.6 |
| 20260901051525 | 71 | 131 | 0.0 | 0.0 | 0.00 | 0.03 | 0.00 | 94 | 1012.6 |
| 20260901050023 | 72 | 131 | 0.0 | 0.0 | 0.00 | 0.03 | 0.00 | 93 | 1012.3 |
| 20260901044521 | 72 | 130 | 0.0 | 1.0 | 0.00 | 0.03 | 0.00 | 93 | 1012.4 |
| 20260901043021 | 72 | 131 | 0.0 | 0.0 | 0.00 | 0.03 | 0.00 | 93 | 1012.5 |
| 20260901041519 | 72 | 203 | 0.0 | 0.0 | 0.00 | 0.03 | 0.00 | 93 | 1012.3 |
| 20260901040016 | 72 | 203 | 0.0 | 1.0 | 0.00 | 0.03 | 0.00 | 92 | 1012.3 |
| 20260901034523 | 72 | 203 | 0.0 | 1.0 | 0.00 | 0.03 | 0.03 | 92 | 1012.4 |
| 20260901033018 | 72 | 203 | 0.0 | 1.0 | 0.00 | 0.03 | 0.03 | 92 | 1012.5 |
| 20260901031521 | 71 | 203 | 0.0 | 1.0 | 0.00 | 0.03 | 0.03 | 92 | 1012.6 |
| 20260901030014 | 71 | 202 | 0.0 | 1.0 | 0.00 | 0.03 | 0.03 | 92 | 1012.6 |
| 20260901024514 | 70 | 15 | 0.0 | 1.0 | 0.00 | 0.03 | 0.03 | 93 | 1012.6 |
| 20260901023019 | 70 | 204 | 0.0 | 0.0 | 0.00 | 0.03 | 0.03 | 93 | 1012.6 |
| 20260901021513 | 71 | 204 | 0.0 | 0.0 | 0.00 | 0.03 | 0.03 | 93 | 1012.7 |
| 20260901020013 | 71 | 204 | 0.0 | 0.0 | 0.00 | 0.03 | 0.03 | 92 | 1012.8 |
| 20260901014512 | 71 | 204 | 0.0 | 0.0 | 0.00 | 0.03 | 0.03 | 92 | 1012.7 |
| 20260901013012 | 71 | 204 | 0.0 | 0.0 | 0.00 | 0.03 | 0.03 | 92 | 1012.6 |
| 20260901011520 | 71 | 204 | 0.0 | 0.0 | 0.00 | 0.03 | 0.03 | 93 | 1012.6 |
| 20260901010011 | 71 | 203 | 0.0 | 0.0 | 0.00 | 0.03 | 0.03 | 93 | 1012.4 |
| 20260901004510 | 71 | 203 | 0.0 | 0.0 | 0.00 | 0.03 | 0.03 | 93 | 1012.2 |
| 20260901003010 | 72 | 204 | 0.0 | 0.0 | 0.00 | 0.03 | 0.03 | 92 | 1012.0 |
| 20260901001509 | 72 | 204 | 0.0 | 0.0 | 0.00 | 0.03 | 0.03 | 92 | 1011.8 |
| 20260901000008 | 73 | 204 | 0.0 | 1.0 | 0.00 | 0.03 | 0.03 | 91 | 1011.9 |
| 20260831234507 | 74 | 195 | 0.0 | 0.0 | 0.00 | 0.03 | 0.03 | 91 | 1012.0 |
| 20260831233006 | 74 | 212 | 0.0 | 2.0 | 0.01 | 0.03 | 0.03 | 90 | 1012.1 |
| 20260831231504 | 75 | 170 | 0.0 | 2.0 | 0.01 | 0.03 | 0.03 | 90 | 1012.2 |
| 20260831230004 | 75 | 305 | 0.0 | 1.0 | 0.01 | 0.03 | 0.03 | 90 | 1012.2 |
| 20260831224502 | 75 | 105 | 0.0 | 2.0 | 0.01 | 0.03 | 0.03 | 90 | 1012.5 |
| 20260831223102 | 75 | 153 | 0.0 | 1.0 | 0.00 | 0.02 | 0.02 | 89 | 1013.0 |
| 20260831221603 | 75 | 274 | 0.0 | 2.0 | 0.00 | 0.02 | 0.02 | 88 | 1013.1 |
| 20260831220114 | 76 | 208 | 0.0 | 2.0 | 0.00 | 0.02 | 0.02 | 85 | 1013.1 |
| 20260831214559 | 77 | 300 | 0.0 | 2.0 | 0.00 | 0.03 | 0.02 | 80 | 1013.2 |
| 20260831213103 | 79 | 124 | 2.0 | 8.0 | 0.00 | 0.03 | 0.02 | 78 | 1013.9 |
| 20260831211603 | 79 | 216 | 0.0 | 4.0 | 0.00 | 0.03 | 0.02 | 78 | 1013.7 |
| 20260831210052 | 79 | 156 | 0.0 | 2.0 | 0.00 | 0.03 | 0.02 | 76 | 1013.6 |
| 20260831204555 | 80 | 211 | 0.0 | 1.0 | 0.00 | 0.04 | 0.02 | 74 | 1013.7 |
| 20260831203052 | 81 | 108 | 0.0 | 1.0 | 0.00 | 0.04 | 0.02 | 72 | 1014.0 |
| 20260831201549 | 81 | 122 | 0.0 | 1.0 | 0.00 | 0.04 | 0.02 | 71 | 1013.8 |
| 20260831200053 | 81 | 142 | 0.0 | 1.0 | 0.00 | 0.04 | 0.02 | 71 | 1013.9 |
| 20260831194547 | 81 | 53 | 0.0 | 2.0 | 0.00 | 0.04 | 0.02 | 71 | 1014.2 |
| 20260831193046 | 80 | 207 | 0.0 | 2.0 | 0.00 | 0.04 | 0.02 | 73 | 1014.4 |
| 20260831191544 | 82 | 55 | 0.0 | 1.0 | 0.00 | 0.04 | 0.02 | 71 | 1014.8 |
| 20260831184540 | 84 | 87 | 0.0 | 4.0 | 0.00 | 0.04 | 0.02 | 71 | 1014.5 |
| 20260831183039 | 82 | 324 | 0.0 | 3.0 | 0.00 | 0.04 | 0.02 | 71 | 1014.3 |
| 20260831181533 | 81 | 200 | 1.0 | 3.0 | 0.00 | 0.04 | 0.02 | 75 | 1014.4 |
| 20260831180042 | 80 | 146 | 0.0 | 3.0 | 0.00 | 0.04 | 0.02 | 79 | 1014.5 |
| 20260831174526 | 79 | 193 | 1.0 | 4.0 | 0.00 | 0.04 | 0.02 | 81 | 1014.6 |
| 20260831173023 | 76 | 58 | 0.0 | 1.0 | 0.00 | 0.04 | 0.02 | 90 | 1014.9 |
| 20260831171522 | 75 | 58 | 0.0 | 0.0 | 0.01 | 0.04 | 0.02 | 93 | 1014.8 |
| 20260831170021 | 74 | 58 | 0.0 | 0.0 | 0.02 | 0.04 | 0.02 | 93 | 1015.2 |
| 20260831164537 | 74 | 58 | 0.0 | 1.0 | 0.02 | 0.04 | 0.02 | 91 | 1015.5 |
| 20260831163023 | 74 | 58 | 0.0 | 0.0 | 0.02 | 0.04 | 0.02 | 89 | 1016.2 |
| 20260831161520 | 76 | 58 | 0.0 | 0.0 | 0.01 | 0.03 | 0.01 | 86 | 1016.2 |